Погода в Нижней Ермоловке

Россия / Карачаево-Черкесская Республика     43°44′22″N   41°30′26″E
темп.,
°C
ветер,
м/с
пор.,
м/с
влажн.,
%
обл.,
%
осадки,
мм/ч
давл.,
гПа
погр.,
м
16 сентября, чт
чт1600:00+12ююз22894 0.0 101428
03:00+11ююз22816 0.0 101320
06:00+10ю228798 1.0 101316
09:00+14с1183100 1.6 1012297
12:00+15с2285100 1.4 1013612
15:00+13ссв2295100 3.1 1014357
18:00+12ссз0199100 3.4 1014142
21:00+11с129998 4.1 1016125
17 сентября, пт
пт1700:00+10св1299100 0.1 1015148
03:00+10всв1199100 0.1 101577
06:00+10юв0098100 0.2 101527
09:00+11ююз1191100 0.6 101558
12:00+14ссв1185100 1.3 1013403
15:00+13ссз0192100 4.0 1014157
18:00+11с119878 2.2 101521
21:00+9ююз229220 2.2 101627
18 сентября, сб
сб1800:00+8ююз32905 0.0 101635
03:00+8ююз22905 0.0 101729
06:00+8ююз22905 0.0 101729
09:00+14ссв11665 0.0 1016457
12:00+18ссв325630 0.0 10141208
15:00+18ссв225856 0.1 10141211
18:00+13ссз118575 0.1 101513
21:00+12ююз2186100 0.1 101518
19 сентября, вс
вс1900:00+10ююз32785 0.0 101537
03:00+9ююз337455 0.0 101549
06:00+10ююз3269100 0.0 101542
09:00+15с115787 0.0 1015324
12:00+19ссв325299 0.0 10141008
15:00+18ссв325839 0.3 1013910
18:00+13зюз118629 2.9 101510
21:00+9ю34855 3.1 101649
20 сентября, пн
пн2000:00+10ююз347378 0.0 101556
03:00+11ююз346998 0.1 101573
06:00+10ююз357144 0.1 101574
09:00+18зюз0251100 0.1 1014460
12:00+21с234365 0.2 10131630
15:00+20с435184 0.4 10131183
18:00+12юв119062 1.1 101712
21:00+10ююз229025 1.1 101725